Humidity-temperature Sensor

Selected Measurement Type: Air Temperature

 
Air Temperature [°C]     6 entries per hour
Showing data from 1/25/2023 (00:00:00 Z) to 1/24/2023 (00:01:00 Z)
Previous Next [ Day | 3-Days | 7-Days ]
First Last
Prev [ Day | 3-Days | 7-Days ] Next
First Last

Start Time:     :
End Time:     :     
Time (in GMT) :00 :50 :40 :30 :20 :10
Previous Next [ Day | 3-Days | 7-Days ]
First Last
Prev [ Day | 3-Days | 7-Days ] Next
First Last


123 => good data
MM => data is determined as missing
-- => data not received/configured
Back to Top Back to Top
1/25/2023 00:00 to 23:10 26.82 26.76 26.68 26.64 26.79 26.66
1/24/2023 23:00 to 22:10 26.64 26.95 26.96 26.85 26.87 26.77
1/24/2023 22:00 to 21:10 26.65 26.93 26.82 26.69 26.73 26.63
1/24/2023 21:00 to 20:10 26.73 26.75 26.53 26.63 26.51 26.69
1/24/2023 20:00 to 19:10 26.51 26.64 26.48 26.60 26.65 26.52
1/24/2023 19:00 to 18:10 26.55 26.59 26.48 26.57 26.49 26.44
1/24/2023 18:00 to 17:10 26.44 26.53 26.40 26.56 26.50 26.55
1/24/2023 17:00 to 16:10 26.37 26.63 26.44 26.53 26.39 26.40
1/24/2023 16:00 to 15:10 26.33 26.51 26.40 26.46 26.53 26.37
1/24/2023 15:00 to 14:10 26.43 26.45 26.49 26.42 26.25 26.36
1/24/2023 14:00 to 13:10 26.35 26.47 26.45 26.44 26.34 26.16
1/24/2023 13:00 to 12:10 26.36 26.29 26.16 26.15 26.24 26.18
1/24/2023 12:00 to 11:10 25.95 26.38 26.02 26.06 26.14 26.32
1/24/2023 11:00 to 10:10 26.24 26.15 26.12 26.10 26.03 26.30
1/24/2023 10:00 to 9:10 26.14 26.20 26.01 26.06 26.22 26.24
1/24/2023 09:00 to 8:10 26.24 26.14 26.25 26.30 26.23 26.36
1/24/2023 08:00 to 7:10 26.13 26.34 26.30 26.37 26.29 26.39
1/24/2023 07:00 to 6:10 26.37 26.45 26.44 26.44 26.33 26.33
1/24/2023 06:00 to 5:10 26.45 26.47 26.58 26.48 26.66 26.55
1/24/2023 05:00 to 4:10 26.45 26.68 26.57 26.60 26.56 26.59
1/24/2023 04:00 to 3:10 26.57 26.68 26.60 26.64 26.67 26.73
1/24/2023 03:00 to 2:10 26.64 26.61 26.70 26.65 26.69 26.61
1/24/2023 02:00 to 1:10 26.53 26.64 26.74 26.63 26.78 26.75
1/24/2023 01:00 to 0:10 26.67 26.66 26.70 26.69 26.65 26.64